Theta_e
341 341 341 339 340 341 340 339 338 337 337 337 337 336 336 336 336 338 338 346 349 352 355 357 359 358 356 354 352 350 350 350 350 350 351 351 351 351 352 352 351 350 350
340 339 338 340 338 339 337 335 336 337 339 338 336 336 336 337 336 339 338 336 343 350 352 355 356 356 357 356 355 353 351 348 349 348 349 349 349 350 351 351 351 351 350
339 339 336 338 335 335 334 334 334 334 334 336 334 333 331 334 337 338 335 335 339 345 349 353 355 356 356 358 358 357 354 350 349 347 347 347 348 349 349 351 351 351 350
342 336 334 337 336 335 335 335 334 331 332 333 332 330 330 331 333 337 339 337 341 343 342 346 350 352 354 355 354 358 355 352 351 349 348 348 347 347 348 348 349 350 349
340 336 335 335 337 335 334 335 334 333 329 331 331 329 329 329 331 336 339 337 331 330 329 337 341 345 344 343 349 354 352 351 350 350 350 349 348 348 347 348 348 348 349
341 338 336 336 335 333 333 333 331 331 331 330 332 331 329 328 328 329 326 324 318 320 323 322 324 322 334 340 343 345 345 347 351 351 349 348 348 348 348 348 348 348 348
342 340 337 336 334 332 333 332 331 328 328 329 327 326 328 330 326 320 318 316 317 319 319 319 320 318 321 333 335 337 340 345 344 350 348 346 347 348 348 348 348 348 347
339 337 337 338 334 332 331 331 329 328 326 331 324 314 309 310 313 315 316 317 317 318 319 320 318 320 320 320 323 335 338 340 342 346 345 344 346 347 348 348 348 348 347
338 331 332 330 328 329 330 328 328 329 323 323 324 315 308 307 308 317 317 317 316 316 317 318 319 320 319 319 324 324 331 335 339 341 343 344 346 347 348 347 347 347 347
333 331 330 330 329 328 326 326 328 327 322 319 321 321 317 314 313 312 314 314 317 316 316 317 318 319 320 318 321 326 329 331 334 338 337 343 347 347 348 347 346 346 345
333 337 335 331 325 325 324 324 321 320 320 320 319 318 317 316 315 312 312 310 315 318 318 319 319 318 319 318 318 322 327 329 330 331 333 336 340 345 348 348 346 346 345
323 324 324 324 323 322 321 319 317 316 315 315 314 314 314 312 311 311 309 309 310 312 313 316 315 316 317 317 323 328 329 328 326 326 327 329 333 339 343 346 347 347 346
315 316 317 317 317 317 317 315 313 313 312 312 311 311 311 311 312 311 310 311 309 312 312 313 314 314 318 316 319 326 325 324 324 323 323 324 327 332 336 341 343 345 345
314 313 314 314 315 315 314 313 311 311 311 311 311 310 310 311 311 310 309 308 305 306 307 306 309 311 312 313 318 323 315 319 322 320 321 322 324 327 330 333 335 335 337
314 313 314 313 313 313 313 311 311 311 311 311 311 311 311 312 312 311 309 308 306 302 303 307 307 308 309 311 314 314 311 319 318 316 320 320 322 323 325 327 328 328 329
312 312 311 311 311 311 311 310 309 310 310 310 311 310 309 309 308 308 307 307 306 305 301 303 305 305 308 311 313 312 311 317 314 318 320 321 320 320 321 322 324 325 326
310 310 311 311 311 310 310 308 308 308 308 308 309 308 308 308 306 306 305 304 302 301 299 302 303 303 304 306 308 308 310 308 312 315 316 316 317 317 318 319 320 321 322
307 308 310 309 309 308 307 306 306 307 307 306 306 305 305 308 303 303 302 302 302 303 300 298 301 301 301 303 304 304 307 311 307 311 312 313 315 316 315 315 316 317 317
304 305 305 306 306 307 307 306 307 307 305 304 304 304 303 303 302 302 302 302 302 303 301 299 298 301 301 302 302 304 304 303 306 310 310 315 315 315 315 315 314 314 312
300 300 301 303 304 305 306 306 306 304 304 306 306 304 303 302 302 302 302 301 302 301 300 299 299 299 300 300 299 299 299 300 300 305 308 309 312 314 314 313 314 315 312
298 299 300 301 301 302 306 305 305 303 303 304 303 304 303 305 308 308 305 303 302 301 301 300 299 299 299 299 298 300 298 299 300 301 303 306 310 317 317 316 319 318 313
295 296 297 298 297 300 302 303 304 301 304 303 304 303 303 305 304 305 306 306 306 303 301 299 299 298 299 300 301 300 296 296 294 301 308 303 308 319 320 321 316 313 310
293 293 294 295 295 296 299 299 302 301 302 303 303 301 301 302 304 303 304 305 305 304 304 302 300 300 300 301 301 300 299 297 297 300 303 302 309 309 315 315 307 308 307
293 296 293 294 294 297 299 298 300 301 302 302 300 300 299 300 302 303 303 302 303 303 304 304 303 303 303 304 303 302 300 300 297 298 303 300 306 309 310 308 305 305 304
295 296 297 295 296 299 299 298 298 299 298 298 300 301 301 301 301 299 301 301 301 301 303 303 302 300 299 298 301 303 300 298 296 296 302 302 305 307 306 304 304 305 303
294 296 297 299 298 296 297 297 297 297 296 297 299 301 301 301 299 297 299 300 299 300 302 302 302 301 299 300 300 301 301 299 299 299 303 306 310 307 303 304 303 303 302
Wind_Speed
5 3 3 1 3 3 2 3 2 2 3 4 4 5 9 9 6 4 4 11 11 11 11 13 16 15 16 16 16 17 19 19 19 19 19 19 19 19 20 20 19 18 19
4 4 4 5 4 5 5 4 6 5 5 5 4 5 7 9 12 14 8 6 11 9 12 15 15 15 16 15 15 17 18 17 19 20 20 20 20 20 21 21 20 20 19
7 6 4 5 5 4 6 5 5 3 4 4 2 4 6 7 10 13 11 8 8 10 11 16 13 12 11 14 16 18 18 17 20 21 20 20 18 19 21 22 22 21 20
10 8 6 5 5 4 3 1 1 3 3 4 2 1 1 4 7 14 13 9 6 4 7 10 9 10 11 13 16 16 15 15 18 19 20 20 19 19 20 22 22 21 21
12 10 7 6 5 5 5 3 1 3 0 1 1 4 4 4 8 13 13 10 6 5 4 7 10 10 10 14 15 14 15 15 15 17 20 18 19 19 21 22 23 22 22
10 8 6 8 9 6 3 5 4 4 2 5 5 6 6 6 9 9 9 7 6 6 5 6 5 6 13 13 14 15 16 18 18 17 17 17 19 20 18 20 21 21 19
10 4 4 8 9 7 6 3 3 4 4 3 1 3 7 11 12 10 6 5 6 6 6 6 4 4 5 12 13 15 18 18 19 18 14 16 19 19 17 19 17 19 20
5 3 5 4 3 2 3 3 3 4 3 5 4 1 4 4 3 5 4 5 7 5 7 8 7 9 7 6 8 12 15 18 20 18 18 17 17 17 16 15 17 19 21
4 5 5 5 4 3 3 3 4 6 3 3 6 3 1 4 2 3 6 5 6 4 5 6 7 8 8 6 10 12 15 17 19 20 18 20 14 13 13 14 18 18 20
3 4 4 5 4 3 4 4 4 4 3 3 1 3 4 2 2 7 2 4 5 5 6 5 6 8 8 6 11 15 18 18 19 17 18 17 17 16 15 15 16 19 19
5 5 4 4 4 3 3 3 2 3 3 3 3 1 2 2 4 3 9 6 6 4 4 5 6 6 9 9 7 9 16 19 19 21 21 17 18 16 14 14 14 17 16
3 5 6 5 5 4 3 3 2 2 3 3 3 2 3 3 3 4 5 9 13 7 4 5 6 7 6 5 9 12 15 17 17 18 19 21 21 15 13 12 14 15 15
3 5 4 5 3 3 3 2 0 2 2 2 2 3 4 5 4 4 5 9 9 8 6 5 5 4 5 4 6 13 17 16 17 17 19 21 23 19 10 12 13 10 9
3 3 4 4 3 2 1 0 1 2 3 4 6 5 4 4 4 3 4 5 11 8 5 7 3 5 3 4 12 16 10 18 16 22 20 18 21 19 11 10 10 7 6
2 4 4 4 3 3 2 2 2 4 3 5 6 6 5 5 4 4 5 5 6 13 11 7 4 5 6 5 7 9 8 15 19 23 22 20 19 16 15 11 8 8 8
2 3 3 3 4 4 4 4 4 5 5 5 5 6 5 4 5 4 4 4 4 7 12 3 6 4 5 8 11 11 9 16 18 19 22 18 18 15 15 13 11 11 10
3 3 3 3 3 3 4 4 6 6 7 6 6 6 7 5 4 4 4 4 4 4 12 11 7 5 7 11 10 8 10 9 9 14 21 23 20 19 16 13 12 11 10
5 5 5 4 5 5 6 5 6 6 6 5 5 5 6 4 6 6 5 8 9 9 10 18 10 8 8 8 8 8 9 9 7 16 21 24 22 19 18 15 11 12 11
7 7 6 6 6 6 6 6 6 6 5 6 6 6 7 6 7 8 8 9 9 9 10 10 10 8 7 5 9 9 8 7 7 20 20 16 15 17 17 13 10 10 9
5 6 6 6 7 8 8 8 7 6 6 6 6 7 7 8 10 11 10 10 9 9 9 10 10 9 7 6 4 8 8 5 7 9 13 17 19 18 17 12 6 7 9
5 5 6 5 6 8 7 6 5 6 6 8 8 7 8 12 24 18 10 11 10 10 10 10 11 10 9 8 9 7 8 9 8 5 10 9 8 8 6 5 5 8 7
6 5 6 7 8 7 10 13 8 6 9 8 10 11 12 18 15 19 21 22 18 14 14 12 11 11 13 11 9 8 7 6 8 4 3 10 8 6 5 2 6 7 7
6 6 6 8 9 7 12 13 12 8 8 11 12 11 12 11 15 13 17 21 21 24 25 18 17 15 15 13 10 9 8 6 9 8 5 10 5 8 3 4 10 7 8
6 8 7 8 7 8 13 13 14 10 9 9 10 13 13 15 15 14 14 15 17 17 17 13 16 17 17 14 11 10 11 9 5 4 4 10 3 4 2 4 11 3 7
9 9 9 8 9 9 11 13 11 8 9 10 11 12 13 15 21 19 14 17 18 18 18 25 25 25 21 14 13 7 9 6 8 5 5 7 6 0 2 3 5 5 6
8 8 9 9 10 10 12 12 11 6 8 9 11 13 18 18 24 23 15 16 16 20 16 14 13 16 20 18 22 15 10 8 7 2 6 4 4 3 2 2 4 4 6
Wind_Direction
178 163 186 136 64 94 89 57 30 327 314 317 310 311 326 321 313 295 296 278 283 297 277 254 246 246 244 240 241 242 243 245 243 240 235 234 235 234 238 241 237 235 232
112 140 123 125 93 100 104 101 88 86 91 84 54 32 6 348 326 318 302 294 282 282 277 269 259 255 258 266 262 258 251 258 255 250 245 236 234 231 239 241 238 236 234
147 126 121 123 121 125 128 130 117 147 137 121 48 24 11 5 337 309 296 290 299 306 292 267 263 281 293 286 278 272 266 246 258 257 250 246 245 237 237 239 239 236 236
125 117 122 136 145 135 99 49 130 114 322 13 11 66 286 35 340 298 288 273 271 282 279 283 308 313 299 295 292 282 274 259 253 254 253 248 242 240 243 247 246 244 239
131 139 152 163 181 175 184 213 179 310 250 235 256 204 243 171 239 260 265 265 266 275 287 315 301 285 281 281 287 286 291 283 266 257 256 255 249 242 241 244 243 240 237
153 162 168 194 185 185 205 170 180 195 215 212 209 210 236 234 244 264 261 267 278 288 290 284 281 282 289 287 288 294 302 294 282 269 255 252 250 247 237 242 247 252 246
197 175 195 190 186 183 202 128 132 168 239 236 348 260 237 233 244 250 258 265 292 296 302 294 283 277 288 293 300 302 308 304 300 283 269 262 256 256 237 238 243 247 249
136 158 198 173 245 99 153 198 164 136 214 193 206 136 280 314 262 241 257 267 274 290 305 306 317 308 303 296 291 290 297 301 303 295 282 264 253 251 242 239 238 242 244
164 153 150 142 172 164 190 196 184 189 226 217 203 179 303 247 335 275 272 263 277 301 295 302 295 296 305 310 314 314 305 303 299 305 297 289 267 258 249 244 238 240 243
211 164 153 156 184 187 205 205 181 194 184 226 275 236 240 189 298 315 312 302 277 298 294 300 302 306 311 310 308 315 305 301 306 307 302 292 285 278 257 245 236 241 237
196 174 167 162 152 142 177 166 135 151 182 161 194 234 331 276 236 237 287 294 299 266 281 293 303 296 306 309 306 303 309 316 317 319 310 291 278 269 265 243 248 247 248
109 100 116 124 114 116 112 106 133 167 195 205 183 194 206 220 229 244 267 288 292 283 267 269 273 280 282 294 320 332 327 331 330 334 335 328 310 288 269 257 254 255 257
47 61 73 87 81 96 109 131 162 293 292 284 264 230 206 220 211 231 251 269 275 297 294 247 245 271 284 303 321 334 334 324 327 324 326 320 318 292 277 255 260 256 260
97 98 92 89 91 91 73 300 285 265 248 255 265 254 256 246 232 216 246 276 287 279 277 276 302 291 304 323 308 320 323 319 323 321 312 315 312 294 269 251 259 278 261
90 72 64 44 16 348 331 308 280 281 274 268 256 252 248 251 242 240 236 235 267 297 288 288 273 268 293 281 272 293 302 302 312 306 304 305 303 298 281 267 252 260 266
48 40 19 7 344 337 328 322 296 281 267 259 251 252 258 254 256 254 250 252 245 274 288 328 283 265 276 289 286 287 291 296 304 294 296 301 303 298 291 280 265 256 243
12 356 331 315 295 291 293 279 270 268 262 268 276 262 265 269 267 275 271 264 262 263 283 292 284 276 276 276 275 280 278 281 283 298 302 303 300 296 287 271 265 262 265
353 340 332 328 310 302 298 301 287 281 271 270 273 282 276 283 278 264 256 264 268 270 273 285 290 289 265 268 274 270 274 271 282 293 294 291 283 280 279 274 260 248 248
16 6 0 335 313 300 296 286 277 272 260 279 279 276 269 270 270 270 264 268 271 270 267 267 277 278 264 245 269 272 256 256 266 287 288 283 297 298 285 264 253 240 242
0 343 329 311 310 307 297 284 268 247 259 258 254 251 252 254 267 274 265 263 262 261 259 267 275 274 273 266 249 278 282 282 284 283 286 280 276 281 282 269 259 251 239
338 317 307 301 299 298 284 285 276 275 271 270 260 247 254 270 283 274 272 272 268 269 271 275 277 278 272 260 253 256 269 280 284 270 280 287 273 268 252 240 258 251 232
319 312 306 303 305 299 307 314 315 290 274 282 287 287 283 288 285 277 273 270 265 273 273 270 268 268 270 267 256 258 249 270 287 262 292 308 316 274 246 210 224 226 219
309 303 301 306 301 295 289 292 293 298 290 289 287 290 289 284 282 276 275 272 267 260 251 257 259 257 266 260 262 257 241 238 255 271 312 293 322 310 344 23 344 221 194
306 306 300 294 292 289 290 292 298 296 288 288 285 279 272 275 269 266 273 274 271 265 260 250 249 253 253 256 245 251 254 255 256 264 256 272 313 275 352 15 358 265 169
320 314 308 301 292 292 288 291 301 303 298 290 276 273 267 269 268 263 267 270 271 267 263 257 250 251 253 243 233 246 235 232 262 258 236 247 249 26 31 15 11 48 131
309 310 304 298 303 300 291 296 305 304 296 286 283 271 260 255 271 271 262 269 271 267 269 264 253 245 241 242 236 230 237 221 232 253 222 242 189 170 100 32 29 30 73